{"data":{"norad_id":68070,"epoch":"2026-09-19T19:20:23.017344Z","epoch_age_seconds":116050,"freshness":"FRESH","line1":"1 68070U 26042B   26262.80582196  .00012936  00000+0  39311-3 0  9992","line2":"2 68070  53.1597 350.7541 0001292  88.2082 271.9069 15.34417605 32117","mean_motion":15.34417605,"eccentricity":0.0001292,"inclination_deg":53.1597,"raan_deg":350.7541,"arg_perigee_deg":88.2082,"mean_anomaly_deg":271.9069,"bstar":0.00039311,"rev_number":3211,"period_min":93.846681327669,"perigee_km":461.76708513871,"apogee_km":463.53474473593,"semimajor_km":6840.7879149373,"source":"CELESTRAK","updated_at":"2026-09-20T09:00:43.776914Z"}}